Location: Mount Lemmon
(32.4432°N, 110.7577°W)
Time: 07:28:22
(UTC-07:00)

Hubble Space Telescope - Visible Passes

Search period start: 25 May 2018 00:00
Search period end: 04 June 2018 00:00
Orbit: 537 x 541 km, 28.5° (Epoch: 24 May)

Date Brightness Start Highest point End Pass type
(mag) Time Alt. Az. Time Alt. Az. Time Alt. Az.
25 May 2.8 04:45:18 10° SSW 04:48:05 17° SSE 04:50:52 10° ESE visible
26 May 2.5 04:34:31 10° SSW 04:37:40 21° SSE 04:40:49 10° ESE visible
27 May 2.2 04:24:26 13° SSW 04:27:15 25° SSE 04:30:41 10° ESE visible
28 May 1.9 04:14:31 17° SW 04:16:51 29° SSE 04:20:28 10° ESE visible
29 May 1.7 04:04:35 22° SW 04:06:29 34° SSE 04:10:13 10° ESE visible
30 May 1.5 03:54:38 28° SSW 03:56:06 38° S 03:59:57 10° E visible
31 May 1.3 03:44:43 35° SSW 03:45:43 42° S 03:49:38 10° E visible
01 Jun 1.1 03:34:49 42° SSW 03:35:22 45° S 03:39:19 10° ESE visible
02 Jun 1.0 03:24:59 47° S 03:25:00 47° S 03:28:59 10° ESE visible
03 Jun 1.2 03:15:12 45° SSE 03:15:12 45° SSE 03:18:38 10° ESE visible
